User: anonymous   Login
Location: Theydon Bois
(51.6750°N, 0.1050°E)
Time: 05:13:08
(UTC+01:00)
Language:

Cosmos 1867 - Orbit

View from above orbital plane
View from above orbital plane
View from above satellite
View from above satellite

Ground track
Ground track

The orbit data is extracted from the following two-line orbital elements,

1 18187U 87060A   17295.34663601 -.00000082 +00000-0 +68529-5 0  9995
2 18187 065.0107 232.9363 0013740 273.1846 086.7666 14.31089483581969
Epoch (UTC): 22 October 2017 08:19:09
Eccentricity: 0.0013740
inclination: 65.0107°
perigee height: 778 km
apogee height: 798 km
right ascension of ascending node: 232.9363°
argument of perigee: 273.1846°
revolutions per day: 14.31089483
mean anomaly at epoch: 86.7666°
orbit number at epoch: 58196

The dashed part of the orbit path shows where the satellite is in the earth's shadow,  

DLR